Find Pratham

NORAD ID: 41783 Int'l Des: 2016-059 Owner: IITB Country: IN operational
LEOCIRCULARRETROGRADESSO

当前视图

正在加载3D地球...

About Pratham

Pratham (NORAD 41783) is a satellite launched Sep 26, 2016 by IITB of IN. It operates in LEO, CIRCULAR, RETROGRADE, SSO orbit with a mass of 10.00 kg.

即将过境

Passes for default location (London). Set your location on the main map for personalized predictions.

高度历史

Loading altitude history...

两行轨道根数

1 41783U 16059A 26194.77264734 .00000330 00000-0 66345-4 0 9990
2 41783 97.8336 190.4638 0032337 132.1396 228.2565 14.67224964523415
Epoch: Jul 13, 2026 • Age: 10 hours

当前状态

高度 665.6 km
远地点 / 近地点 N/A
速度 7.54 km/s
星下点 81.89°N, 80.94°E
发射日期 Sep 26, 2016
运行时间 9.7 years
类型 other

技术详情

分类 Payload
质量 10.00 kg
干质量 10.00 kg
总质量 10.00 kg
长度 0.47 m
直径 0.31 m
跨度 0.47 m
形状 Box
制造商 IITB
平台类型 Pratham
阶段状态 In Orbit
所有者/国家 IITB/IN

Most Searched